Regional Weather Roundup
Issued by NWS Burlington, VT

Home | Current Version | Previous Version | Text Only | Print | Product List | Glossary On
Versions: 1 2 3 4 5 6 7 8 9 10 11 12 13 14 15 16 17 18 19 20 21 22 23 24 25 26 27 28 29 30 31 32 33 34 35 36 37 38 39 40 41 42 43 44 45 46 47 48 49 50
000
ASUS41 KBTV 290230
RWRBTV
VERMONT REGIONAL WEATHER ROUNDUP
NATIONAL WEATHER SERVICE BURLINGTON VT
1000 PM EDT SUN MAY 28 2017

NOTE: "FAIR" INDICATES FEW OR NO CLOUDS BELOW 12,000 FEET WITH NO
SIGNIFICANT WEATHER AND/OR OBSTRUCTIONS TO VISIBILITY.

* THESE REPORTS ARE NOT UNDER NWS QUALITY CONTROL AND/OR DO NOT
  REPORT WEATHER SUCH AS PRECIPITATION AND FOG.

VTZ001>019-290300-
_____VERMONT_____


CITY           SKY/WX    TMP DP  RH WIND       PRES   REMARKS
BURLINGTON     CLOUDY    68  53  58 S6        29.88R
MONTPELIER     CLOUDY    62  54  74 S9        29.97R
MORRISVILLE    MOCLDY    66  49  54 S8G17     29.92R
ST. JOHNSBURY*   N/A     64  54  69 MISG      29.92R
LYNDONVILLE*   FAIR      61  52  72 SE6       29.96R
MIDDLEBURY*    FAIR      64  52  64 SE7       29.89F
RUTLAND*       PTCLDY    63  55  75 SE7       29.93R
SPRINGFIELD    CLOUDY    62  55  77 S5        29.95R
HIGHGATE*      FAIR      64  54  69 SE6       29.87R
NEWPORT*       FAIR      60  53  77 SE9       29.92S
BENNINGTON     CLOUDY    63  55  75 CALM      29.93R
SUTTON*          N/A     57 N/A N/A MISG        N/A

_____LAKE CHAMPLAIN_____


CITY           SKY/WX    TMP DP  RH WIND       PRES   REMARKS
BURTON ISLAND*   N/A     66  55  68 S8          N/A
COLCHESTER RF*   N/A     61  55  82 SW6         N/A
DIAMOND ISL*     N/A     66  55  68 S7          N/A

$$

NYZ007-026>031-035-052-083-087-290300-
_____NORTHERN NEW YORK_____


CITY           SKY/WX    TMP DP  RH WIND       PRES   REMARKS
PLATTSBURGH    PTCLDY    63  53  70 CALM      29.86R
SARANAC LAKE   CLEAR     54  51  90 CALM      29.87R
MASSENA        CLOUDY    68  55  63 SE7       29.82R
OGDENSBURG*    CLOUDY    69  56  62 SE3       29.79F
POTSDAM*       CLOUDY    68  57  68 S5        29.81S
WATERTOWN      CLOUDY    68  58  70 SE5       29.77F
FT DRUM        CLOUDY    68  56  63 SE10      29.79F
ALBANY         CLOUDY    66  54  65 S14G24    29.90R
GLENS FALLS    PTCLDY    65  56  72 S6        29.89S

$$
NHZ002-005-011-290300-
_____NEW HAMPSHIRE_____


CITY           SKY/WX    TMP DP  RH WIND       PRES   REMARKS
LEBANON        CLOUDY    65  57  75 SE3       29.93R
KEENE          MOCLDY    62  57  83 S6        29.96S
MT WASHINGTON  PTCLDY    45  25  45 SE12        N/A
PLYMOUTH       FAIR      58  52  79 CALM      29.98R
WHITEFIELD     CLOUDY    62  49  62 SW5       29.94S

$$

_____REGIONAL QUEBEC LOCATIONS_____


CITY           SKY/WX    TMP DP  RH WIND       PRES   REMARKS
MONTREAL       PTCLDY    70  54  56 SE13      29.83R
QUEBEC CITY    MOCLDY    52  39  62 E18G26    29.96S
SHERBROOKE     CLOUDY    63  52  67 CALM      29.90R

_____REGIONAL ONTARIO LOCATIONS_____


CITY           SKY/WX    TMP DP  RH WIND       PRES   REMARKS
OTTAWA         CLOUDY    66  57  72 SE6       29.79S

______KEY______
VSB  - VISIBILITY IN MILES
WCI  - WIND CHILL INDEX
HX   - HEAT INDEX
$$
NNNN




USA.gov is the U.S. government's official web portal to all federal, state and local government web resources and services.